Station Historical Data
Daily Summary for September 30, 2017 Units:  Metric    English   Both
« Previous Day
Next Day »
Daily Weekly Monthly Yearly Custom
  High: Low: Average:
Temperature: 26.2 °C 17.2 °C 21.6 °C
Dew Point: 18.1 °C 11.8 °C 14.7 °C
Humidity: 89% 43% 67%
Wind Speed: 20.9km/h 4.8km/h 9.2km/h
Wind Gust: 33.8km/h - -
Wind- - ESE
Pressure: 1021.6 hPa 1017.8 hPa -
Precipitation: 0 mm    
Historical Graphs
 
 
Tabular Data for September 30, 2017
Time Temperature Dew Point Pressure Wind Wind Speed Wind Gust Humidity Rainfall Rate (Hourly) solar Conditions
00:00 21.5 °C 17.9 °C 1017.8 hPa North 9.7 km/h 9.7 km/h 80% 0 mm WeatherDisplay:10.37 W/m2 FEW
00:05 21.6 °C 17.9 °C 1017.8 hPa North 9.7 km/h 9.7 km/h 80% 0 mm WeatherDisplay:10.37 W/m2 FEW
00:10 21.5 °C 17.9 °C 1017.8 hPa North 9.7 km/h 9.7 km/h 80% 0 mm WeatherDisplay:10.37 W/m2 FEW
00:15 21.4 °C 17.8 °C 1018.2 hPa North 8 km/h 9.7 km/h 80% 0 mm WeatherDisplay:10.37 W/m2 BKN
00:20 21.4 °C 17.8 °C 1017.8 hPa NNW 8 km/h 8 km/h 80% 0 mm WeatherDisplay:10.37 W/m2 BKN
00:25 21.4 °C 18.1 °C 1017.8 hPa NNW 8 km/h 8 km/h 81% 0 mm WeatherDisplay:10.37 W/m2 BKN
00:30 21.4 °C 18 °C 1017.8 hPa NNW 8 km/h 8 km/h 81% 0 mm WeatherDisplay:10.37 W/m2 BKN
00:40 21.2 °C 17.9 °C 1017.8 hPa NNW 8 km/h 8 km/h 82% 0 mm WeatherDisplay:10.37 W/m2 BKN
00:45 21.1 °C 17.9 °C 1017.8 hPa NNW 8 km/h 8 km/h 82% 0 mm WeatherDisplay:10.37 W/m2 BKN
00:50 21.1 °C 17.9 °C 1017.8 hPa NNW 8 km/h 8 km/h 82% 0 mm WeatherDisplay:10.37 W/m2 BKN
00:55 21 °C 18 °C 1017.8 hPa NNW 8 km/h 8 km/h 83% 0 mm WeatherDisplay:10.37 W/m2 BKN
01:00 20.9 °C 17.9 °C 1017.8 hPa NNW 8 km/h 8 km/h 83% 0 mm WeatherDisplay:10.37 W/m2 BKN
01:05 20.9 °C 17.9 °C 1017.8 hPa NNW 8 km/h 8 km/h 83% 0 mm WeatherDisplay:10.37 W/m2 BKN
01:10 20.9 °C 18.1 °C 1017.8 hPa NNW 8 km/h 8 km/h 84% 0 mm WeatherDisplay:10.37 W/m2 BKN
01:15 20.8 °C 18.1 °C 1017.8 hPa North 8 km/h 8 km/h 84% 0 mm WeatherDisplay:10.37 W/m2 FEW
01:20 20.8 °C 18 °C 1017.8 hPa NNE 8 km/h 8 km/h 84% 0 mm WeatherDisplay:10.37 W/m2 FEW
01:25 20.7 °C 17.9 °C 1017.8 hPa NNE 8 km/h 8 km/h 84% 0 mm WeatherDisplay:10.37 W/m2 FEW
01:30 20.6 °C 17.8 °C 1017.8 hPa NNE 8 km/h 8 km/h 84% 0 mm WeatherDisplay:10.37 W/m2 FEW
01:35 20.6 °C 17.8 °C 1017.8 hPa NNE 8 km/h 8 km/h 84% 0 mm WeatherDisplay:10.37 W/m2 FEW
01:40 20.5 °C 17.7 °C 1017.8 hPa NNE 8 km/h 8 km/h 84% 0 mm WeatherDisplay:10.37 W/m2 FEW
01:45 20.6 °C 17.8 °C 1017.8 hPa NNE 8 km/h 8 km/h 84% 0 mm WeatherDisplay:10.37 W/m2 FEW
01:50 20.6 °C 17.8 °C 1017.8 hPa NNE 8 km/h 8 km/h 84% 0 mm WeatherDisplay:10.37 W/m2 FEW
01:55 20.5 °C 17.7 °C 1017.8 hPa NNE 8 km/h 8 km/h 84% 0 mm WeatherDisplay:10.37 W/m2 FEW
02:00 20.3 °C 17.7 °C 1017.8 hPa NNE 8 km/h 8 km/h 85% 0 mm WeatherDisplay:10.37 W/m2 FEW
02:05 20.2 °C 17.6 °C 1017.8 hPa NNE 8 km/h 8 km/h 85% 0 mm WeatherDisplay:10.37 W/m2 FEW
02:10 20.2 °C 17.6 °C 1017.8 hPa NNE 8 km/h 8 km/h 85% 0 mm WeatherDisplay:10.37 W/m2 FEW
02:15 20.1 °C 17.4 °C 1017.8 hPa North 4.8 km/h 8 km/h 85% 0 mm WeatherDisplay:10.37 W/m2 FEW
02:20 20 °C 17.4 °C 1017.8 hPa North 4.8 km/h 4.8 km/h 85% 0 mm WeatherDisplay:10.37 W/m2 FEW
02:25 19.9 °C 17.6 °C 1017.8 hPa North 4.8 km/h 4.8 km/h 86% 0 mm WeatherDisplay:10.37 W/m2 FEW
02:30 19.9 °C 17.5 °C 1017.8 hPa North 4.8 km/h 4.8 km/h 86% 0 mm WeatherDisplay:10.37 W/m2 FEW
02:35 19.9 °C 17.5 °C 1017.8 hPa North 4.8 km/h 4.8 km/h 86% 0 mm WeatherDisplay:10.37 W/m2 FEW
02:40 19.8 °C 17.4 °C 1017.8 hPa North 4.8 km/h 4.8 km/h 86% 0 mm WeatherDisplay:10.37 W/m2 FEW
02:45 19.8 °C 17.4 °C 1017.8 hPa North 4.8 km/h 4.8 km/h 86% 0 mm WeatherDisplay:10.37 W/m2 FEW
02:50 19.8 °C 17.4 °C 1017.8 hPa North 4.8 km/h 4.8 km/h 86% 0 mm WeatherDisplay:10.37 W/m2 FEW
02:55 19.8 °C 17.3 °C 1017.8 hPa North 4.8 km/h 4.8 km/h 86% 0 mm WeatherDisplay:10.37 W/m2 FEW
03:00 19.7 °C 17.3 °C 1017.8 hPa North 4.8 km/h 4.8 km/h 86% 0 mm WeatherDisplay:10.37 W/m2 FEW
03:05 19.7 °C 17.3 °C 1017.8 hPa North 4.8 km/h 4.8 km/h 86% 0 mm WeatherDisplay:10.37 W/m2 FEW
03:10 19.6 °C 17.2 °C 1017.8 hPa North 4.8 km/h 4.8 km/h 86% 0 mm WeatherDisplay:10.37 W/m2 FEW
03:15 19.6 °C 17.3 °C 1017.8 hPa North 4.8 km/h 4.8 km/h 87% 0 mm WeatherDisplay:10.37 W/m2 SCT
03:25 19.4 °C 17.2 °C 1017.8 hPa North 4.8 km/h 4.8 km/h 87% 0 mm WeatherDisplay:10.37 W/m2 SCT
03:30 19.4 °C 17.2 °C 1017.8 hPa North 4.8 km/h 4.8 km/h 87% 0 mm WeatherDisplay:10.37 W/m2 SCT
03:40 19.3 °C 17.1 °C 1017.8 hPa North 4.8 km/h 4.8 km/h 87% 0 mm WeatherDisplay:10.37 W/m2 SCT
03:45 19.3 °C 17.1 °C 1017.8 hPa North 4.8 km/h 4.8 km/h 87% 0 mm WeatherDisplay:10.37 W/m2 SCT
03:50 19.3 °C 17.1 °C 1017.8 hPa North 4.8 km/h 4.8 km/h 87% 0 mm WeatherDisplay:10.37 W/m2 SCT
03:55 19.3 °C 17.1 °C 1017.8 hPa North 4.8 km/h 4.8 km/h 87% 0 mm WeatherDisplay:10.37 W/m2 SCT
04:00 19.3 °C 17.1 °C 1018.2 hPa North 4.8 km/h 4.8 km/h 87% 0 mm WeatherDisplay:10.37 W/m2 SCT
04:05 19.3 °C 17.1 °C 1018.2 hPa North 4.8 km/h 4.8 km/h 87% 0 mm WeatherDisplay:10.37 W/m2 SCT
04:10 19.3 °C 17.1 °C 1018.2 hPa North 4.8 km/h 4.8 km/h 87% 0 mm WeatherDisplay:10.37 W/m2 SCT
04:15 19.3 °C 17.1 °C 1018.2 hPa North 4.8 km/h 4.8 km/h 87% 0 mm WeatherDisplay:10.37 W/m2 SCT
04:20 19.3 °C 17.1 °C 1018.2 hPa North 4.8 km/h 4.8 km/h 87% 0 mm WeatherDisplay:10.37 W/m2 SCT
04:25 19.2 °C 17 °C 1018.2 hPa North 4.8 km/h 4.8 km/h 87% 0 mm WeatherDisplay:10.37 W/m2 SCT
04:30 19.2 °C 17 °C 1018.2 hPa North 4.8 km/h 4.8 km/h 87% 0 mm WeatherDisplay:10.37 W/m2 SCT
04:35 19.2 °C 17 °C 1018.2 hPa North 4.8 km/h 4.8 km/h 87% 0 mm WeatherDisplay:10.37 W/m2 SCT
04:40 19.1 °C 16.9 °C 1018.2 hPa North 4.8 km/h 4.8 km/h 87% 0 mm WeatherDisplay:10.37 W/m2 SCT
04:45 19.1 °C 17.1 °C 1018.2 hPa North 4.8 km/h 4.8 km/h 88% 0 mm WeatherDisplay:10.37 W/m2 SCT
04:50 19 °C 16.9 °C 1018.2 hPa North 4.8 km/h 4.8 km/h 88% 0 mm WeatherDisplay:10.37 W/m2 SCT
04:55 18.9 °C 16.9 °C 1018.5 hPa North 4.8 km/h 4.8 km/h 88% 0 mm WeatherDisplay:10.37 W/m2 SCT
05:00 18.9 °C 16.9 °C 1018.5 hPa North 4.8 km/h 4.8 km/h 88% 0 mm WeatherDisplay:10.37 W/m2 SCT
05:05 18.8 °C 16.8 °C 1018.2 hPa North 4.8 km/h 4.8 km/h 88% 0 mm WeatherDisplay:10.37 W/m2 SCT
05:10 18.8 °C 16.7 °C 1018.2 hPa North 4.8 km/h 4.8 km/h 88% 0 mm WeatherDisplay:10.37 W/m2 SCT
05:15 18.7 °C 16.7 °C 1018.2 hPa NNE 4.8 km/h 4.8 km/h 88% 0 mm WeatherDisplay:10.37 W/m2 SCT
05:20 18.7 °C 16.8 °C 1018.2 hPa NNE 4.8 km/h 4.8 km/h 89% 0 mm WeatherDisplay:10.37 W/m2 SCT
05:25 18.6 °C 16.8 °C 1018.2 hPa NNE 4.8 km/h 4.8 km/h 89% 0 mm WeatherDisplay:10.37 W/m2 SCT
05:30 18.6 °C 16.7 °C 1018.5 hPa NNE 4.8 km/h 4.8 km/h 89% 0 mm WeatherDisplay:10.37 W/m2 SCT
05:35 18.6 °C 16.6 °C 1018.5 hPa NNE 4.8 km/h 4.8 km/h 88% 0 mm WeatherDisplay:10.37 W/m2 SCT
05:45 18.7 °C 16.6 °C 1018.5 hPa NNE 4.8 km/h 4.8 km/h 88% 0 mm WeatherDisplay:10.37 W/m2 SCT
05:50 18.8 °C 16.6 °C 1018.8 hPa NNE 4.8 km/h 4.8 km/h 87% 0 mm WeatherDisplay:10.37 W/m2 SCT
05:55 18.8 °C 16.7 °C 1018.8 hPa NNE 4.8 km/h 4.8 km/h 87% 0 mm WeatherDisplay:10.37 W/m2 SCT
06:00 18.8 °C 16.6 °C 1018.8 hPa NNE 4.8 km/h 4.8 km/h 87% 0 mm WeatherDisplay:10.37 W/m2 SCT
06:05 18.8 °C 16.6 °C 1018.8 hPa NNE 4.8 km/h 4.8 km/h 87% 0 mm WeatherDisplay:10.37 W/m2 SCT
06:10 18.7 °C 16.5 °C 1018.8 hPa NNE 4.8 km/h 4.8 km/h 87% 0 mm WeatherDisplay:10.37 W/m2 SCT
06:15 18.7 °C 16.4 °C 1018.8 hPa NNE 4.8 km/h 4.8 km/h 87% 0 mm WeatherDisplay:10.37 W/m2 CLR
06:20 18.6 °C 16.6 °C 1018.8 hPa North 4.8 km/h 4.8 km/h 88% 0 mm WeatherDisplay:10.37 W/m2 CLR
06:25 18.6 °C 16.3 °C 1018.8 hPa NNE 4.8 km/h 4.8 km/h 87% 0 mm WeatherDisplay:10.37 W/m2 BKN
06:30 18.5 °C 16.3 °C 1018.8 hPa NNE 4.8 km/h 4.8 km/h 87% 0 mm WeatherDisplay:10.37 W/m2 BKN
06:35 18.6 °C 16 °C 1018.8 hPa NNE 4.8 km/h 4.8 km/h 85% 0 mm WeatherDisplay:10.37 W/m2 BKN
06:40 18.7 °C 15.8 °C 1018.8 hPa NNE 4.8 km/h 4.8 km/h 83% 0 mm WeatherDisplay:10.37 W/m2 BKN
06:45 18.9 °C 15.6 °C 1019.2 hPa NNE 4.8 km/h 4.8 km/h 81% 0 mm WeatherDisplay:10.37 W/m2 BKN
06:50 19.3 °C 15.4 °C 1019.2 hPa NNE 4.8 km/h 4.8 km/h 78% 0 mm WeatherDisplay:10.37 W/m2 BKN
06:55 19.5 °C 15.3 °C 1019.2 hPa NE 8 km/h 8 km/h 77% 0 mm WeatherDisplay:10.37 W/m2 SCT
07:00 19.6 °C 15.2 °C 1019.2 hPa NE 8 km/h 8 km/h 76% 0 mm WeatherDisplay:10.37 W/m2 SCT
07:05 19.7 °C 15.1 °C 1019.2 hPa NE 8 km/h 8 km/h 75% 0 mm WeatherDisplay:10.37 W/m2 SCT
07:10 19.7 °C 14.9 °C 1019.2 hPa NE 8 km/h 8 km/h 74% 0 mm WeatherDisplay:10.37 W/m2 SCT
07:15 19.7 °C 14.9 °C 1019.2 hPa NE 9.7 km/h 9.7 km/h 74% 0 mm WeatherDisplay:10.37 W/m2 FEW
07:20 19.8 °C 15 °C 1019.2 hPa ENE 9.7 km/h 9.7 km/h 74% 0 mm WeatherDisplay:10.37 W/m2 FEW
07:25 19.8 °C 14.8 °C 1019.2 hPa ENE 9.7 km/h 9.7 km/h 73% 0 mm WeatherDisplay:10.37 W/m2 FEW
07:30 19.8 °C 14.8 °C 1019.2 hPa ENE 9.7 km/h 9.7 km/h 73% 0 mm WeatherDisplay:10.37 W/m2 FEW
07:40 19.8 °C 14.4 °C 1019.5 hPa ENE 9.7 km/h 9.7 km/h 71% 0 mm WeatherDisplay:10.37 W/m2 FEW
07:45 19.8 °C 14.2 °C 1019.5 hPa ENE 9.7 km/h 9.7 km/h 70% 0 mm WeatherDisplay:10.37 W/m2 FEW
07:50 19.8 °C 14.2 °C 1019.5 hPa ENE 9.7 km/h 9.7 km/h 70% 0 mm WeatherDisplay:10.37 W/m2 FEW
07:55 19.8 °C 14 °C 1019.5 hPa ENE 9.7 km/h 9.7 km/h 69% 0 mm WeatherDisplay:10.37 W/m2 FEW
08:00 19.9 °C 14.1 °C 1019.5 hPa ENE 9.7 km/h 9.7 km/h 69% 0 mm WeatherDisplay:10.37 W/m2 FEW
08:05 19.9 °C 13.9 °C 1019.9 hPa ENE 9.7 km/h 9.7 km/h 68% 0 mm WeatherDisplay:10.37 W/m2 FEW
08:10 20 °C 13.9 °C 1019.9 hPa ENE 9.7 km/h 9.7 km/h 68% 0 mm WeatherDisplay:10.37 W/m2 FEW
08:15 20.1 °C 13.9 °C 1019.9 hPa ENE 9.7 km/h 9.7 km/h 68% 0 mm WeatherDisplay:10.37 W/m2 BKN
08:20 20.2 °C 13.8 °C 1019.9 hPa ENE 9.7 km/h 9.7 km/h 67% 0 mm WeatherDisplay:10.37 W/m2 BKN
08:25 20.2 °C 13.7 °C 1019.9 hPa ENE 9.7 km/h 9.7 km/h 66% 0 mm WeatherDisplay:10.37 W/m2 BKN
08:30 20.3 °C 13.5 °C 1019.9 hPa ENE 9.7 km/h 9.7 km/h 65% 0 mm WeatherDisplay:10.37 W/m2 BKN
08:40 20.4 °C 13.6 °C 1019.9 hPa ENE 9.7 km/h 9.7 km/h 65% 0 mm WeatherDisplay:10.37 W/m2 BKN
08:45 20.4 °C 13.6 °C 1019.9 hPa ENE 9.7 km/h 9.7 km/h 65% 0 mm WeatherDisplay:10.37 W/m2 BKN
08:50 20.4 °C 13.8 °C 1019.9 hPa ENE 9.7 km/h 9.7 km/h 66% 0 mm WeatherDisplay:10.37 W/m2 BKN
08:55 20.4 °C 14.1 °C 1020.2 hPa ENE 9.7 km/h 9.7 km/h 67% 0 mm WeatherDisplay:10.37 W/m2 BKN
09:00 20.5 °C 13.7 °C 1020.2 hPa ENE 9.7 km/h 9.7 km/h 65% 0 mm WeatherDisplay:10.37 W/m2 BKN
09:05 20.6 °C 13.3 °C 1020.2 hPa ENE 9.7 km/h 9.7 km/h 63% 0 mm WeatherDisplay:10.37 W/m2 BKN
09:10 20.6 °C 13.3 °C 1020.2 hPa ENE 9.7 km/h 9.7 km/h 63% 0 mm WeatherDisplay:10.37 W/m2 BKN
09:15 20.7 °C 13.4 °C 1020.2 hPa ENE 12.9 km/h 12.9 km/h 63% 0 mm WeatherDisplay:10.37 W/m2 BKN
09:20 20.7 °C 13.7 °C 1020.2 hPa ENE 12.9 km/h 12.9 km/h 64% 0 mm WeatherDisplay:10.37 W/m2 BKN
09:25 20.8 °C 13.1 °C 1020.2 hPa ENE 12.9 km/h 12.9 km/h 61% 0 mm WeatherDisplay:10.37 W/m2 BKN
09:30 20.8 °C 13.3 °C 1020.5 hPa ENE 12.9 km/h 12.9 km/h 62% 0 mm WeatherDisplay:10.37 W/m2 BKN
09:40 20.8 °C 13 °C 1020.5 hPa ENE 12.9 km/h 12.9 km/h 61% 0 mm WeatherDisplay:10.37 W/m2 BKN
09:45 20.9 °C 12.8 °C 1020.5 hPa ENE 12.9 km/h 12.9 km/h 60% 0 mm WeatherDisplay:10.37 W/m2 BKN
09:50 20.9 °C 13.2 °C 1020.5 hPa ENE 12.9 km/h 12.9 km/h 61% 0 mm WeatherDisplay:10.37 W/m2 BKN
10:00 21.2 °C 13.4 °C 1020.5 hPa ENE 12.9 km/h 12.9 km/h 61% 0 mm WeatherDisplay:10.37 W/m2 BKN
10:05 21.4 °C 12.5 °C 1020.9 hPa ENE 12.9 km/h 12.9 km/h 57% 0 mm WeatherDisplay:10.37 W/m2 BKN
10:10 21.4 °C 12.8 °C 1020.9 hPa ENE 12.9 km/h 12.9 km/h 58% 0 mm WeatherDisplay:10.37 W/m2 BKN
10:15 21.4 °C 13.1 °C 1020.9 hPa East 20.9 km/h 33.8 km/h 59% 0 mm WeatherDisplay:10.37 W/m2 SCT
10:20 21.4 °C 12.8 °C 1020.9 hPa East 20.9 km/h 33.8 km/h 58% 0 mm WeatherDisplay:10.37 W/m2 SCT
10:25 21.5 °C 13.2 °C 1020.9 hPa East 20.9 km/h 33.8 km/h 59% 0 mm WeatherDisplay:10.37 W/m2 SCT
10:30 21.6 °C 13 °C 1020.9 hPa East 20.9 km/h 33.8 km/h 58% 0 mm WeatherDisplay:10.37 W/m2 SCT
10:40 21.9 °C 12.5 °C 1021.2 hPa East 20.9 km/h 33.8 km/h 55% 0 mm WeatherDisplay:10.37 W/m2 SCT
10:45 22.1 °C 11.8 °C 1021.2 hPa East 20.9 km/h 33.8 km/h 52% 0 mm WeatherDisplay:10.37 W/m2 SCT
10:50 22.4 °C 12.3 °C 1020.9 hPa East 20.9 km/h 33.8 km/h 53% 0 mm WeatherDisplay:10.37 W/m2 SCT
10:55 22.6 °C 12.5 °C 1021.2 hPa East 20.9 km/h 33.8 km/h 53% 0 mm WeatherDisplay:10.37 W/m2 SCT
11:00 22.9 °C 12.6 °C 1021.2 hPa East 20.9 km/h 33.8 km/h 52% 0 mm WeatherDisplay:10.37 W/m2 SCT
11:05 23.2 °C 11.8 °C 1021.2 hPa East 20.9 km/h 33.8 km/h 49% 0 mm WeatherDisplay:10.37 W/m2 SCT
11:10 23.3 °C 12.1 °C 1021.2 hPa East 20.9 km/h 33.8 km/h 49% 0 mm WeatherDisplay:10.37 W/m2 SCT
11:15 23.7 °C 13.2 °C 1021.2 hPa East 16.1 km/h 33.8 km/h 52% 0 mm WeatherDisplay:10.37 W/m2 SCT
11:20 23.9 °C 11.9 °C 1021.2 hPa East 16.1 km/h 32.2 km/h 47% 0 mm WeatherDisplay:10.37 W/m2 SCT
11:25 24.2 °C 12.2 °C 1021.2 hPa East 16.1 km/h 32.2 km/h 47% 0 mm WeatherDisplay:10.37 W/m2 SCT
11:30 24.3 °C 11.9 °C 1021.2 hPa East 16.1 km/h 32.2 km/h 46% 0 mm WeatherDisplay:10.37 W/m2 SCT
11:40 24.5 °C 12.1 °C 1021.2 hPa East 16.1 km/h 32.2 km/h 46% 0 mm WeatherDisplay:10.37 W/m2 SCT
11:45 24.6 °C 12.9 °C 1021.2 hPa East 16.1 km/h 32.2 km/h 48% 0 mm WeatherDisplay:10.37 W/m2 SCT
11:50 24.9 °C 12.2 °C 1021.2 hPa East 16.1 km/h 32.2 km/h 45% 0 mm WeatherDisplay:10.37 W/m2 SCT
11:55 24.9 °C 12.2 °C 1021.2 hPa East 16.1 km/h 32.2 km/h 45% 0 mm WeatherDisplay:10.37 W/m2 SCT
12:05 24.8 °C 12.1 °C 1021.2 hPa East 16.1 km/h 32.2 km/h 45% 0 mm WeatherDisplay:10.37 W/m2 SCT
12:10 25.1 °C 12.3 °C 1021.2 hPa East 16.1 km/h 32.2 km/h 45% 0 mm WeatherDisplay:10.37 W/m2 SCT
12:15 25.3 °C 12.8 °C 1021.2 hPa ENE 12.9 km/h 32.2 km/h 46% 0 mm WeatherDisplay:10.37 W/m2 SCT
12:20 25.4 °C 12.6 °C 1021.2 hPa ENE 12.9 km/h 12.9 km/h 45% 0 mm WeatherDisplay:10.37 W/m2 SCT
12:25 25.2 °C 12.4 °C 1021.2 hPa ENE 12.9 km/h 12.9 km/h 45% 0 mm WeatherDisplay:10.37 W/m2 SCT
12:30 25.3 °C 12.5 °C 1020.9 hPa ENE 12.9 km/h 12.9 km/h 45% 0 mm WeatherDisplay:10.37 W/m2 SCT
12:35 25.5 °C 13.3 °C 1020.9 hPa ENE 12.9 km/h 12.9 km/h 47% 0 mm WeatherDisplay:10.37 W/m2 SCT
12:40 25.6 °C 12.4 °C 1020.9 hPa ENE 12.9 km/h 12.9 km/h 44% 0 mm WeatherDisplay:10.37 W/m2 SCT
12:45 25.6 °C 12.4 °C 1020.9 hPa ENE 12.9 km/h 12.9 km/h 44% 0 mm WeatherDisplay:10.37 W/m2 SCT
12:50 25.5 °C 12.7 °C 1020.9 hPa ENE 12.9 km/h 12.9 km/h 45% 0 mm WeatherDisplay:10.37 W/m2 SCT
12:55 25.7 °C 13.2 °C 1020.9 hPa ENE 12.9 km/h 12.9 km/h 46% 0 mm WeatherDisplay:10.37 W/m2 SCT
13:00 26 °C 13.5 °C 1020.9 hPa ENE 12.9 km/h 12.9 km/h 46% 0 mm WeatherDisplay:10.37 W/m2 SCT
13:05 26.2 °C 13 °C 1020.9 hPa ENE 12.9 km/h 12.9 km/h 44% 0 mm WeatherDisplay:10.37 W/m2 SCT
13:10 26 °C 12.4 °C 1020.5 hPa ENE 12.9 km/h 12.9 km/h 43% 0 mm WeatherDisplay:10.37 W/m2 SCT
13:15 25.7 °C 12.9 °C 1020.5 hPa NE 11.3 km/h 12.9 km/h 45% 0 mm WeatherDisplay:10.37 W/m2 SCT
13:20 25.6 °C 13.4 °C 1020.5 hPa NE 11.3 km/h 11.3 km/h 47% 0 mm WeatherDisplay:10.37 W/m2 SCT
13:30 25.7 °C 12.2 °C 1020.5 hPa NE 11.3 km/h 11.3 km/h 43% 0 mm WeatherDisplay:10.37 W/m2 SCT
13:35 25.7 °C 12.8 °C 1020.5 hPa NE 11.3 km/h 11.3 km/h 45% 0 mm WeatherDisplay:10.37 W/m2 SCT
13:45 25.8 °C 12.9 °C 1020.2 hPa NE 11.3 km/h 11.3 km/h 45% 0 mm WeatherDisplay:10.37 W/m2 SCT
13:50 26.1 °C 12.9 °C 1020.5 hPa NE 11.3 km/h 11.3 km/h 44% 0 mm WeatherDisplay:10.37 W/m2 SCT
13:55 25.9 °C 12.4 °C 1020.2 hPa NE 11.3 km/h 11.3 km/h 43% 0 mm WeatherDisplay:10.37 W/m2 SCT
14:00 25.8 °C 12.2 °C 1020.2 hPa NE 11.3 km/h 11.3 km/h 43% 0 mm WeatherDisplay:10.37 W/m2 SCT
14:05 25.7 °C 12.8 °C 1020.2 hPa NE 11.3 km/h 11.3 km/h 45% 0 mm WeatherDisplay:10.37 W/m2 SCT
14:10 25.6 °C 12.7 °C 1020.2 hPa NE 11.3 km/h 11.3 km/h 45% 0 mm WeatherDisplay:10.37 W/m2 SCT
14:15 25.4 °C 12.9 °C 1020.2 hPa NE 4.8 km/h 11.3 km/h 46% 0 mm WeatherDisplay:10.37 W/m2 SCT
14:20 25.4 °C 13.3 °C 1020.2 hPa ENE 4.8 km/h 4.8 km/h 47% 0 mm WeatherDisplay:10.37 W/m2 SCT
14:25 25.4 °C 12.3 °C 1020.2 hPa ENE 4.8 km/h 4.8 km/h 44% 0 mm WeatherDisplay:10.37 W/m2 SCT
14:30 25.6 °C 12.7 °C 1019.9 hPa ENE 4.8 km/h 4.8 km/h 45% 0 mm WeatherDisplay:10.37 W/m2 SCT
14:35 25.7 °C 13.6 °C 1019.9 hPa ENE 4.8 km/h 4.8 km/h 47% 0 mm WeatherDisplay:10.37 W/m2 SCT
14:40 25.7 °C 12.9 °C 1019.9 hPa ENE 4.8 km/h 4.8 km/h 45% 0 mm WeatherDisplay:10.37 W/m2 SCT
14:45 25.8 °C 12.6 °C 1019.9 hPa ENE 4.8 km/h 4.8 km/h 44% 0 mm WeatherDisplay:10.37 W/m2 SCT
14:50 25.6 °C 12.8 °C 1019.9 hPa ENE 4.8 km/h 4.8 km/h 45% 0 mm WeatherDisplay:10.37 W/m2 SCT
14:55 25.4 °C 12.6 °C 1019.9 hPa ENE 4.8 km/h 4.8 km/h 45% 0 mm WeatherDisplay:10.37 W/m2 SCT
15:00 25.6 °C 13.4 °C 1019.9 hPa ENE 4.8 km/h 4.8 km/h 47% 0 mm WeatherDisplay:10.37 W/m2 SCT
15:05 25.8 °C 13.3 °C 1019.9 hPa ENE 4.8 km/h 4.8 km/h 46% 0 mm WeatherDisplay:10.37 W/m2 SCT
15:10 25.9 °C 13.4 °C 1019.5 hPa ENE 4.8 km/h 4.8 km/h 46% 0 mm WeatherDisplay:10.37 W/m2 SCT
15:15 25.8 °C 13.7 °C 1019.5 hPa East 9.7 km/h 9.7 km/h 47% 0 mm WeatherDisplay:10.37 W/m2 SCT
15:20 25.8 °C 13.3 °C 1019.5 hPa East 9.7 km/h 9.7 km/h 46% 0 mm WeatherDisplay:10.37 W/m2 SCT
15:25 25.7 °C 12.8 °C 1019.5 hPa East 9.7 km/h 9.7 km/h 45% 0 mm WeatherDisplay:10.37 W/m2 SCT
15:30 25.7 °C 13.5 °C 1019.5 hPa East 9.7 km/h 9.7 km/h 47% 0 mm WeatherDisplay:10.37 W/m2 SCT
15:35 25.7 °C 12.8 °C 1019.5 hPa East 9.7 km/h 9.7 km/h 45% 0 mm WeatherDisplay:10.37 W/m2 SCT
15:40 25.6 °C 13.4 °C 1019.5 hPa East 9.7 km/h 9.7 km/h 47% 0 mm WeatherDisplay:10.37 W/m2 SCT
15:45 25.6 °C 13.4 °C 1019.2 hPa East 9.7 km/h 9.7 km/h 47% 0 mm WeatherDisplay:10.37 W/m2 SCT
15:50 25.6 °C 13.4 °C 1019.2 hPa East 9.7 km/h 9.7 km/h 47% 0 mm WeatherDisplay:10.37 W/m2 SCT
15:55 25.6 °C 13.4 °C 1019.5 hPa East 9.7 km/h 9.7 km/h 47% 0 mm WeatherDisplay:10.37 W/m2 SCT
16:00 25.4 °C 12.7 °C 1019.5 hPa East 9.7 km/h 9.7 km/h 45% 0 mm WeatherDisplay:10.37 W/m2 SCT
16:05 25.4 °C 13.9 °C 1019.5 hPa East 9.7 km/h 9.7 km/h 49% 0 mm WeatherDisplay:10.37 W/m2 SCT
16:10 25.5 °C 13.1 °C 1019.5 hPa East 9.7 km/h 9.7 km/h 46% 0 mm WeatherDisplay:10.37 W/m2 SCT
16:15 25.6 °C 13.1 °C 1019.5 hPa East 12.9 km/h 12.9 km/h 46% 0 mm WeatherDisplay:10.37 W/m2 SCT
16:20 25.7 °C 13.9 °C 1019.5 hPa East 12.9 km/h 12.9 km/h 48% 0 mm WeatherDisplay:10.37 W/m2 SCT
16:25 25.9 °C 12.7 °C 1019.5 hPa East 12.9 km/h 12.9 km/h 44% 0 mm WeatherDisplay:10.37 W/m2 SCT
16:30 26 °C 13.5 °C 1019.5 hPa East 12.9 km/h 12.9 km/h 46% 0 mm WeatherDisplay:10.37 W/m2 SCT
16:35 26.1 °C 13.2 °C 1019.5 hPa East 12.9 km/h 12.9 km/h 45% 0 mm WeatherDisplay:10.37 W/m2 SCT
16:40 25.9 °C 13.1 °C 1019.5 hPa East 12.9 km/h 12.9 km/h 45% 0 mm WeatherDisplay:10.37 W/m2 SCT
16:50 25.7 °C 13.8 °C 1019.2 hPa East 12.9 km/h 12.9 km/h 48% 0 mm WeatherDisplay:10.37 W/m2 SCT
16:55 25.5 °C 13.7 °C 1019.2 hPa NE 12.9 km/h 12.9 km/h 48% 0 mm WeatherDisplay:10.37 W/m2 CLR
17:00 25.4 °C 13.3 °C 1019.2 hPa NNE 12.9 km/h 12.9 km/h 47% 0 mm WeatherDisplay:10.37 W/m2 CLR
17:05 25.4 °C 13.6 °C 1019.2 hPa NNE 12.9 km/h 12.9 km/h 48% 0 mm WeatherDisplay:10.37 W/m2 CLR
17:10 25.3 °C 14.4 °C 1019.2 hPa NNE 12.9 km/h 12.9 km/h 51% 0 mm WeatherDisplay:10.37 W/m2 CLR
17:15 25.2 °C 14.9 °C 1019.2 hPa NE 9.7 km/h 12.9 km/h 53% 0 mm WeatherDisplay:10.37 W/m2 SCT
17:20 25.1 °C 14.6 °C 1019.2 hPa East 9.7 km/h 9.7 km/h 52% 0 mm WeatherDisplay:10.37 W/m2 SCT
17:25 25.1 °C 15.1 °C 1019.2 hPa East 9.7 km/h 9.7 km/h 54% 0 mm WeatherDisplay:10.37 W/m2 SCT
17:30 24.9 °C 13.5 °C 1019.2 hPa East 9.7 km/h 9.7 km/h 49% 0 mm WeatherDisplay:10.37 W/m2 SCT
17:35 25 °C 13.8 °C 1019.2 hPa East 9.7 km/h 9.7 km/h 50% 0 mm WeatherDisplay:10.37 W/m2 SCT
17:40 24.9 °C 14.1 °C 1019.2 hPa East 9.7 km/h 9.7 km/h 51% 0 mm WeatherDisplay:10.37 W/m2 SCT
17:45 24.8 °C 14 °C 1019.2 hPa East 9.7 km/h 9.7 km/h 51% 0 mm WeatherDisplay:10.37 W/m2 SCT
17:50 24.8 °C 14.3 °C 1019.2 hPa East 9.7 km/h 9.7 km/h 52% 0 mm WeatherDisplay:10.37 W/m2 SCT
17:55 24.7 °C 14.8 °C 1019.2 hPa East 9.7 km/h 9.7 km/h 54% 0 mm WeatherDisplay:10.37 W/m2 SCT
18:00 24.7 °C 13.8 °C 1019.2 hPa East 9.7 km/h 9.7 km/h 51% 0 mm WeatherDisplay:10.37 W/m2 SCT
18:05 24.6 °C 14.1 °C 1019.2 hPa East 9.7 km/h 9.7 km/h 52% 0 mm WeatherDisplay:10.37 W/m2 SCT
18:10 24.4 °C 14.8 °C 1019.2 hPa East 9.7 km/h 9.7 km/h 55% 0 mm WeatherDisplay:10.37 W/m2 SCT
18:15 24.2 °C 14.6 °C 1019.2 hPa East 9.7 km/h 9.7 km/h 55% 0 mm WeatherDisplay:10.37 W/m2 BKN
18:20 23.9 °C 14.3 °C 1019.2 hPa East 9.7 km/h 9.7 km/h 55% 0 mm WeatherDisplay:10.37 W/m2 BKN
18:25 23.6 °C 14.3 °C 1019.2 hPa East 9.7 km/h 9.7 km/h 56% 0 mm WeatherDisplay:10.37 W/m2 BKN
18:30 23.4 °C 14.7 °C 1019.5 hPa East 9.7 km/h 9.7 km/h 58% 0 mm WeatherDisplay:10.37 W/m2 BKN
18:35 23.2 °C 14.5 °C 1019.2 hPa East 9.7 km/h 9.7 km/h 58% 0 mm WeatherDisplay:10.37 W/m2 BKN
18:40 23.1 °C 14.7 °C 1019.5 hPa East 9.7 km/h 9.7 km/h 59% 0 mm WeatherDisplay:10.37 W/m2 BKN
18:45 22.9 °C 14.5 °C 1019.5 hPa East 9.7 km/h 9.7 km/h 59% 0 mm WeatherDisplay:10.37 W/m2 BKN
18:50 22.8 °C 14.7 °C 1019.5 hPa East 9.7 km/h 9.7 km/h 60% 0 mm WeatherDisplay:10.37 W/m2 BKN
18:55 22.7 °C 14.5 °C 1019.5 hPa East 9.7 km/h 9.7 km/h 60% 0 mm WeatherDisplay:10.37 W/m2 BKN
19:00 22.6 °C 14.7 °C 1019.5 hPa East 9.7 km/h 9.7 km/h 61% 0 mm WeatherDisplay:10.37 W/m2 BKN
19:05 22.4 °C 14.8 °C 1019.5 hPa East 9.7 km/h 9.7 km/h 62% 0 mm WeatherDisplay:10.37 W/m2 BKN
19:10 22.3 °C 14.7 °C 1019.9 hPa East 9.7 km/h 9.7 km/h 62% 0 mm WeatherDisplay:10.37 W/m2 BKN
19:15 22.2 °C 15.1 °C 1019.9 hPa East 9.7 km/h 9.7 km/h 64% 0 mm WeatherDisplay:10.37 W/m2 BKN
19:20 22.1 °C 14.7 °C 1019.9 hPa East 9.7 km/h 9.7 km/h 63% 0 mm WeatherDisplay:10.37 W/m2 BKN
19:25 21.9 °C 14.8 °C 1019.9 hPa East 9.7 km/h 9.7 km/h 64% 0 mm WeatherDisplay:10.37 W/m2 BKN
19:30 21.7 °C 14.8 °C 1019.9 hPa East 9.7 km/h 9.7 km/h 65% 0 mm WeatherDisplay:10.37 W/m2 BKN
19:40 21.2 °C 14.8 °C 1019.9 hPa East 9.7 km/h 9.7 km/h 67% 0 mm WeatherDisplay:10.37 W/m2 BKN
19:45 21.1 °C 14.9 °C 1019.9 hPa East 9.7 km/h 9.7 km/h 68% 0 mm WeatherDisplay:10.37 W/m2 BKN
19:50 20.9 °C 14.8 °C 1019.9 hPa East 9.7 km/h 9.7 km/h 68% 0 mm WeatherDisplay:10.37 W/m2 BKN
19:55 20.8 °C 14.9 °C 1019.9 hPa East 9.7 km/h 9.7 km/h 69% 0 mm WeatherDisplay:10.37 W/m2 BKN
20:00 20.8 °C 14.9 °C 1019.9 hPa East 9.7 km/h 9.7 km/h 69% 0 mm WeatherDisplay:10.37 W/m2 BKN
20:05 20.7 °C 15 °C 1020.2 hPa East 9.7 km/h 9.7 km/h 70% 0 mm WeatherDisplay:10.37 W/m2 BKN
20:10 20.6 °C 15.1 °C 1020.2 hPa East 9.7 km/h 9.7 km/h 71% 0 mm WeatherDisplay:10.37 W/m2 BKN
20:15 20.4 °C 14.8 °C 1020.2 hPa East 9.7 km/h 9.7 km/h 70% 0 mm WeatherDisplay:10.37 W/m2 BKN
20:20 20.3 °C 14.8 °C 1020.2 hPa East 9.7 km/h 9.7 km/h 71% 0 mm WeatherDisplay:10.37 W/m2 BKN
20:25 20.2 °C 15 °C 1020.2 hPa East 9.7 km/h 9.7 km/h 72% 0 mm WeatherDisplay:10.37 W/m2 BKN
20:30 20.1 °C 14.9 °C 1020.2 hPa East 9.7 km/h 9.7 km/h 72% 0 mm WeatherDisplay:10.37 W/m2 BKN
20:40 19.9 °C 14.9 °C 1020.2 hPa East 9.7 km/h 9.7 km/h 73% 0 mm WeatherDisplay:10.37 W/m2 BKN
20:45 19.7 °C 14.9 °C 1020.2 hPa East 9.7 km/h 9.7 km/h 74% 0 mm WeatherDisplay:10.37 W/m2 BKN
20:50 19.6 °C 14.6 °C 1020.5 hPa East 9.7 km/h 9.7 km/h 73% 0 mm WeatherDisplay:10.37 W/m2 BKN
20:55 19.5 °C 14.6 °C 1020.5 hPa East 9.7 km/h 9.7 km/h 73% 0 mm WeatherDisplay:10.37 W/m2 BKN
21:00 19.4 °C 14.7 °C 1020.5 hPa East 9.7 km/h 9.7 km/h 74% 0 mm WeatherDisplay:10.37 W/m2 BKN
21:05 19.4 °C 14.6 °C 1020.5 hPa East 9.7 km/h 9.7 km/h 74% 0 mm WeatherDisplay:10.37 W/m2 BKN
21:10 19.3 °C 14.5 °C 1020.5 hPa East 9.7 km/h 9.7 km/h 74% 0 mm WeatherDisplay:10.37 W/m2 BKN
21:15 19.2 °C 14.3 °C 1020.5 hPa East 9.7 km/h 9.7 km/h 73% 0 mm WeatherDisplay:10.37 W/m2 SCT
21:20 19.2 °C 14.2 °C 1020.5 hPa East 9.7 km/h 9.7 km/h 73% 0 mm WeatherDisplay:10.37 W/m2 SCT
21:25 19.1 °C 14.4 °C 1020.5 hPa East 9.7 km/h 9.7 km/h 74% 0 mm WeatherDisplay:10.37 W/m2 SCT
21:30 19.1 °C 14.1 °C 1020.5 hPa East 9.7 km/h 9.7 km/h 73% 0 mm WeatherDisplay:10.37 W/m2 SCT
21:40 19 °C 14.4 °C 1020.9 hPa East 9.7 km/h 9.7 km/h 75% 0 mm WeatherDisplay:10.37 W/m2 SCT
21:45 18.9 °C 14.2 °C 1020.9 hPa East 9.7 km/h 9.7 km/h 74% 0 mm WeatherDisplay:10.37 W/m2 SCT
21:50 18.8 °C 14.1 °C 1020.9 hPa East 9.7 km/h 9.7 km/h 74% 0 mm WeatherDisplay:10.37 W/m2 SCT
21:55 18.8 °C 13.8 °C 1021.2 hPa East 9.7 km/h 9.7 km/h 73% 0 mm WeatherDisplay:10.37 W/m2 SCT
22:00 18.8 °C 14.2 °C 1021.2 hPa East 9.7 km/h 9.7 km/h 75% 0 mm WeatherDisplay:10.37 W/m2 SCT
22:10 18.6 °C 14.1 °C 1021.2 hPa East 9.7 km/h 9.7 km/h 75% 0 mm WeatherDisplay:10.37 W/m2 SCT
22:15 18.6 °C 14.2 °C 1021.2 hPa East 4.8 km/h 9.7 km/h 76% 0 mm WeatherDisplay:10.37 W/m2 FEW
22:20 18.4 °C 14.3 °C 1021.2 hPa East 4.8 km/h 4.8 km/h 77% 0 mm WeatherDisplay:10.37 W/m2 FEW
22:25 18.3 °C 14.2 °C 1021.2 hPa East 4.8 km/h 4.8 km/h 77% 0 mm WeatherDisplay:10.37 W/m2 FEW
22:30 18.2 °C 14.3 °C 1021.2 hPa East 4.8 km/h 4.8 km/h 78% 0 mm WeatherDisplay:10.37 W/m2 FEW
22:40 18 °C 14.1 °C 1021.2 hPa East 4.8 km/h 4.8 km/h 78% 0 mm WeatherDisplay:10.37 W/m2 FEW
22:45 17.9 °C 14.2 °C 1021.2 hPa East 4.8 km/h 4.8 km/h 79% 0 mm WeatherDisplay:10.37 W/m2 FEW
22:50 17.9 °C 14.2 °C 1021.2 hPa East 4.8 km/h 4.8 km/h 79% 0 mm WeatherDisplay:10.37 W/m2 FEW
22:55 17.8 °C 14.2 °C 1021.2 hPa East 4.8 km/h 4.8 km/h 79% 0 mm WeatherDisplay:10.37 W/m2 FEW
23:00 17.8 °C 14.1 °C 1021.2 hPa East 4.8 km/h 4.8 km/h 79% 0 mm WeatherDisplay:10.37 W/m2 FEW
23:05 17.7 °C 14.2 °C 1021.2 hPa East 4.8 km/h 4.8 km/h 80% 0 mm WeatherDisplay:10.37 W/m2 FEW
23:10 17.7 °C 14 °C 1021.6 hPa East 4.8 km/h 4.8 km/h 79% 0 mm WeatherDisplay:10.37 W/m2 FEW
23:15 17.6 °C 13.7 °C 1021.2 hPa East 4.8 km/h 4.8 km/h 78% 0 mm WeatherDisplay:10.37 W/m2 FEW
23:20 17.6 °C 13.9 °C 1021.6 hPa East 4.8 km/h 4.8 km/h 79% 0 mm WeatherDisplay:10.37 W/m2 FEW
23:25 17.6 °C 13.8 °C 1021.6 hPa East 4.8 km/h 4.8 km/h 79% 0 mm WeatherDisplay:10.37 W/m2 FEW
23:30 17.5 °C 14 °C 1021.6 hPa East 4.8 km/h 4.8 km/h 80% 0 mm WeatherDisplay:10.37 W/m2 FEW
23:35 17.4 °C 13.9 °C 1021.6 hPa East 4.8 km/h 4.8 km/h 80% 0 mm WeatherDisplay:10.37 W/m2 FEW
23:40 17.3 °C 13.8 °C 1021.6 hPa East 4.8 km/h 4.8 km/h 80% 0 mm WeatherDisplay:10.37 W/m2 FEW
23:45 17.3 °C 13.8 °C 1021.6 hPa East 4.8 km/h 4.8 km/h 80% 0 mm WeatherDisplay:10.37 W/m2 FEW
23:50 17.2 °C 13.7 °C 1021.6 hPa East 4.8 km/h 4.8 km/h 80% 0 mm WeatherDisplay:10.37 W/m2 FEW
23:55 17.2 °C 13.7 °C 1021.6 hPa East 4.8 km/h 4.8 km/h 80% 0 mm WeatherDisplay:10.37 W/m2 FEW
Piedmont Bend
Compliments of Weather Underground - 4 mb